Regional Weather Roundup
Issued by NWS

Home | Current Version | Previous Version | Text Only | Print | Product List | Glossary Off
Versions: 1 2 3 4 5 6 7 8 9 10 11 12 13 14 15 16 17 18 19 20 21 22 23 24 25 26 27 28 29 30 31 32 33 34 35 36 37 38 39 40 41 42 43 44 45 46 47 48 49 50

571
ASUS43 KMKX 070420
RWRWI

WISCONSIN REGIONAL WEATHER ROUNDUP
NATIONAL WEATHER SERVICE MILWAUKEE/SULLIVAN WI
1000 PM CST SAT FEB 06 2016

NOTE: "FAIR" INDICATES FEW OR NO CLOUDS BELOW 12,000 FEET WITH NO
SIGNIFICANT WEATHER AND/OR OBSTRUCTIONS TO VISIBILITY.

WIZ001-002-006>008-014>016-023>028-070500-
NORTHWEST WISCONSIN

CITY           SKY/WX    TMP DP  RH WIND       PRES   REMARKS
SUPERIOR ARPT  CLOUDY    34  28  80 SW12G20   29.69F WCI  25
ASHLAND        LGT SNOW  32  27  81 SW15      29.73F WCI  22
HAYWARD        LGT SNOW  30  26  85 S14       29.75F FOG     WCI  19
SIREN          LGT SNOW  33  29  85 S12G18    29.75F WCI  24
CUMBERLAND     MIX PCPN  30  28  93 S13       29.78F WCI  20
RICE LAKE      LGT SNOW  31  27  84 S10       29.81F WCI  22
CHETEK         LGT SNOW  30  26  86 S10G18    29.81F WCI  21
LADYSMITH      CLOUDY    31  25  78 S14       29.83F WCI  21
EAU CLAIRE     CLOUDY    31  24  75 S15       29.85F WCI  20
MENOMONIE      CLOUDY    32  26  79 S10G17    29.84F WCI  24
NEW RICHMOND   MIX PCPN  32  28  83 S12       29.79F WCI  23
OSCEOLA        FLURRIES  33  30  88 S10       29.82S WCI  25
$$

WIZ003>005-009-010-017-018-070500-
NORTH CENTRAL WISCONSIN

CITY           SKY/WX    TMP DP  RH WIND       PRES   REMARKS
MANITOWISH WTR CLOUDY    30  23  75 S12G18    29.76F WCI  20
ARBOR VITAE    CLOUDY    32  26  78 S12       29.78F WCI  23
WOODRUFF       CLOUDY    32  26  78 S12       29.78F WCI  23
RHINELANDER    LGT SNOW  28  24  85 S12       29.80F FOG     WCI  18
EAGLE RIVER    LGT SNOW  29  23  77 S8        29.79F WCI  21
LAND O LAKES   FLURRIES  30  23  75 S10G16    29.78F WCI  21
PHILLIPS       CLOUDY    30  23  74 S14       29.79F WCI  20
TOMAHAWK       LGT SNOW  28  25  88 S7        29.83F WCI  21
MEDFORD        CLOUDY    28  24  83 S13       29.84F WCI  18
MERRILL        CLOUDY    30  24  79 S8        29.87F WCI  22
$$

WIZ029-030-035-036-043>047-070500-
CENTRAL WISCONSIN

CITY           SKY/WX    TMP DP  RH WIND       PRES   REMARKS
WAUSAU         CLOUDY    31  24  75 S13       29.87F WCI  21
MOSINEE        CLOUDY    30  27  86 S10G18    29.90F WCI  21
MARSHFIELD     CLOUDY    30  22  72 S13       29.86F WCI  20
STEVENS POINT  CLOUDY    28  24  85 S10       29.92F WCI  18
WAUPACA        CLOUDY    32  26  77 S8        29.96F WCI  25
WAUTOMA        CLOUDY    30  26  85 S8        29.97F WCI  22
WISC RAPIDS    CLOUDY    30  23  75 SW10      29.93F WCI  21
CAMP DOUGLAS   PTCLDY    30  30  99 VRB2      29.92F
$$

WIZ011>013-019>022-031-037>040-048>050-070500-
NORTHEAST WISCONSIN

CITY           SKY/WX    TMP DP  RH WIND       PRES   REMARKS
ANTIGO         CLOUDY    28  23  81 SW12      29.88S WCI  18
SHAWANO        CLOUDY    32  26  77 SW6       29.95S WCI  26
OCONTO         CLOUDY    30  26  84 SW6       29.95F WCI  24
STURGEON BAY   CLOUDY    28  23  80 S14       29.98S WCI  17
GREEN BAY      CLOUDY    29  25  85 S12       29.97F WCI  19
MANITOWOC      CLOUDY    30  25  81 MISG      29.99F
APPLETON       CLOUDY    28  23  80 S14       29.96F WCI  17
CLINTONVILLE   CLOUDY    30  25  80 SW10      29.95S WCI  21
OSHKOSH        CLOUDY    28  24  85 SW13      29.98F WCI  17
$$

WIZ032>034-041-042-053>061-070500-
SOUTHWEST WISCONSIN

CITY           SKY/WX    TMP DP  RH WIND       PRES   REMARKS
LA CROSSE      CLOUDY    31  25  78 S10       29.92F WCI  22
SPARTA         CLOUDY    31  26  83 S8        29.93F WCI  23
VIROQUA        CLOUDY    30  27  88 S13       29.93F WCI  20
BOSCOBEL       CLOUDY    33  30  88 SW5       29.99F WCI  29
PRAIRIE DU CHI CLOUDY    32  28  83 S5        29.98F WCI  28
PLATTEVILLE    PTCLDY    30  29  95 S10       30.00F WCI  21
$$

WIZ056-057-062-063-064-067-068-070500-
SOUTH CENTRAL WISCONSIN

CITY           SKY/WX    TMP DP  RH WIND       PRES   REMARKS
REEDSBURG      CLOUDY    30  27  90 S6        29.96F WCI  24
BARABOO/DELLS  CLOUDY    30  26  86 SW12      29.96F WCI  21
LONE ROCK      CLOUDY    31  26  82 SE5       29.99F WCI  26
MINERAL POINT  CLOUDY    32  30  93 S10       29.98F FOG     WCI  24
MADISON        CLOUDY    30  25  81 S7        30.00F WCI  23
MIDDLETON      CLOUDY    32  28  84 S6        30.00F WCI  26
WATERTOWN      CLOUDY    29  29 100 S5        30.01F WCI  24
MONROE         CLOUDY    30  30 100 S12       30.00F WCI  21
JANESVILLE     MOCLDY    32  30  93 CALM      30.03F
$$

WIZ051-052-058>065-066-070>072-070500-
SOUTHEAST WISCONSIN

CITY           SKY/WX    TMP DP  RH WIND       PRES   REMARKS
MILWAUKEE      CLOUDY    32  27  81 SW10      30.03F WCI  24
WAUKESHA       PTCLDY    28  27  93 SW6       30.03F WCI  22
MILWAUKEE/TIMM PTCLDY    30  27  86 SW6       30.03F WCI  24
RACINE         CLEAR     32  26  78 SW7       30.06F WCI  26
BURLINGTON     PTCLDY    29  26  88 S5        30.03F WCI  24
KENOSHA        CLEAR     31  26  82 SW6       30.05F WCI  25
FOND DU LAC    CLOUDY    29  25  85 SW12      29.99F WCI  19
SHEBOYGAN      PTCLDY    30  25  81 S7        29.99F WCI  23
WEST BEND      PTCLDY    30  28  93 SW7       30.01S WCI  23
JUNEAU         CLOUDY    28  25  91 S9        30.01F WCI  19
$$

LSZ147-162-070500-
LAKE SUPERIOR

STATION/POSITION TIME  TEMP    WIND        PRES    WAVE
                       AIR SEA DIR/SP/G            HT/PER
                 (UTC) (F)     (DEG/KT/KT) (MB)    (FT/S)
DEVILS ISLAND    0400   33     190/  9/ 14 1007.2F
PORT WING        0400          180/  9/ 21   N/A
SAXON HARBOR     0300   35                 1007.1F
$$

LMZ867-665-643>646-070500-
LAKE MICHIGAN

STATION/POSITION TIME  TEMP    WIND        PRES    WAVE
                       AIR SEA DIR/SP/G            HT/PER
                 (UTC) (F)     (DEG/KT/KT) (MB)    (FT/S)
CHAMBERS ISLAND  0300   29     170/ 10/ 14 1014.6F
ALGOMA LAKESHORE 0326          220/ 16/ 20   N/A
KEWAUNEE LAKESHO 0300   30     200/ 12/ 14 1015.0F
SHEBOYGAN LAKESH 0400   31     200/ 12/ 13 1016.9F
PORT WASHINGTON  0300   31     210/  4/  8 1017.9
MILWAUKEE LAKESH 0310   33     220/  6/  6   N/A
KENOSHA   LAKESH 0400   33     200/  6/  8 1017.6F
$$

TC  - TEMPERATURE IN CELSIUS
VSB - VISIBILITY IN STATUTE MILES
WCI - WIND CHILL INDEX
HX  - HEAT INDEX





USA.gov is the U.S. government's official web portal to all federal, state and local government web resources and services.